Location: *
(46.1667°S, 157.2833°W)
Time: 18:36:28
(UTC+00:00)

Daily predictions for brighter satellites

Satellite Brightness Start Highest point End
(mag) Time Altitude Azimuth Time Altitude Azimuth Time Altitude Azimuth
H-2A R/B 3.7 12:04:43 34° NE 12:06:17 64° ESE 12:10:19 10° S
SL-4 R/B 2.4 12:04:05 10° WSW 12:08:07 60° SSE 12:11:53 10° ENE
Lacrosse 5 rocket 4.1 12:07:58 10° SW 12:10:02 14° S 12:12:06 10° SE
Cosmos 1441 Rocket 3.2 12:06:28 10° S 12:10:08 69° ESE 12:11:03 46° NE
Cosmos 1980 Rocket 3.4 12:07:38 21° NNE 12:10:28 32° ENE 12:15:26 10° SE
CZ-2C R/B 4.0 12:07:03 10° SSE 12:12:08 34° E 12:15:45 17° NNE
Cosmos 1461 4.0 12:13:25 28° NE 12:14:20 31° ENE 12:18:00 10° SE
FENGYUN 3A 4.0 12:13:03 36° NNW 12:14:51 50° W 12:20:10 10° SSW
Meteor 1-5 Rocket 4.2 12:09:53 10° SSW 12:15:10 61° W 12:17:15 36° NNW
Cosmos 1190 Rocket 4.3 12:10:33 10° SSW 12:15:56 71° ESE 12:20:17 16° NNE
Cosmos 2219 4.4 12:13:58 10° SSW 12:19:31 44° SE 12:25:00 10° NE
ATLAS 3B R/B 3.1 12:16:06 10° SW 12:21:41 36° WNW 12:23:26 31° NNW
Cosmos 1812 Rocket 3.5 12:24:00 40° NNW 12:25:36 82° W 12:30:09 10° S
Cosmos 2221 2.8 12:24:58 32° NNE 12:26:46 61° E 12:31:01 10° SSE
Meteor 2-15 4.5 12:20:38 10° S 12:26:53 82° E 12:31:24 20° NNE
USA 229 DEB 3.6 12:24:34 10° SW 12:30:52 50° WNW 12:34:25 23° N
USA 229 3.6 12:24:38 10° SW 12:30:56 51° WNW 12:34:34 23° N
EXPRESS MD2 3.4 12:31:04 31° SW 12:31:31 34° S 12:33:50 10° ESE
Tiangong -0.6 12:33:03 25° NE 12:33:03 25° NE 12:34:51 10° ENE
IDEFIX/ARIANE 42P 4.1 12:31:14 19° WNW 12:32:13 20° W 12:36:02 10° SW
Cosmos 1371 Rocket 4.2 12:30:32 30° N 12:33:07 67° ENE 12:38:21 10° SSE
Cosmos 2251 Rocket 3.6 12:30:06 10° SSW 12:35:20 58° WNW 12:38:06 27° N
Cosmos 972 Rocket 4.4 12:30:44 10° SSW 12:36:26 83° ESE 12:42:48 10° NNE
NOAA 11 4.2 12:34:09 21° N 12:37:58 83° WNW 12:43:33 10° SSW
Cosmos 1605 Rocket 4.0 12:35:57 10° SSW 12:42:12 72° W 12:46:27 22° N
Resurs 1-4 Rocket 3.2 12:41:29 24° WNW 12:42:57 28° W 12:47:31 10° SW
ADEOS II 2.6 12:40:54 29° NW 12:42:58 41° W 12:47:59 10° SSW
Cosmos 1743 3.7 12:40:30 10° SSW 12:43:30 26° W 12:43:39 26° W
Lacrosse 5 4.2 12:40:49 10° SW 12:45:00 24° S 12:49:12 10° SE
SJ 16-02 3.5 12:43:55 10° S 12:47:40 27° ESE 12:51:23 10° ENE
BlueWalker 3 3.1 12:48:17 24° NNE 12:49:13 27° NE 12:52:28 10° ESE
Cosmos 1420 Rocket 4.1 12:46:48 28° NW 12:49:33 66° WSW 12:54:49 10° SSE
H-2A R/B 4.3 12:51:56 10° SSW 12:54:37 18° WSW 12:56:16 14° W
H-2A R/B 3.0 12:49:58 10° NE 12:55:04 49° ESE 13:00:06 10° S
Cosmos 1727 Rocket 4.2 12:51:05 17° N 12:56:03 74° E 13:02:28 10° SSE
Cosmos 2056 Rocket 3.5 12:53:41 26° NNW 12:56:44 78° WSW 13:02:10 10° SSE
Cosmos 676 Rocket 4.0 12:52:14 10° SSW 12:57:40 86° WNW 13:03:00 10° NNE
SL-16 R/B 4.4 12:54:03 10° NE 12:57:48 18° E 13:01:34 10° ESE
USA 305 2.6 12:56:48 36° NNW 12:58:00 59° NE 13:01:53 10° ESE
Cosmos 1238 Rocket 4.0 12:59:57 20° W 13:00:49 22° WSW 13:03:44 10° SSW
ALOS 3.1 13:02:48 24° NW 13:04:30 32° W 13:08:40 10° SSW
Meteor 1-11 Rocket 4.2 13:01:27 10° S 13:07:30 67° ESE 13:13:24 10° NNE
Cosmos 2369 4.0 13:04:39 18° N 13:08:51 63° ENE 13:14:33 10° SSE
Meteor 1-14 Rocket 4.3 13:05:03 10° SSW 13:10:57 67° W 13:16:05 13° N
Cosmos 1459 Rocket 4.3 13:05:51 10° S 13:12:13 69° E 13:18:24 10° NNE
Envisat 3.5 13:09:36 21° NNW 13:12:42 43° W 13:17:36 10° SSW
USA 59 Rocket 2.3 13:05:11 10° SW 13:13:21 34° WNW 13:18:36 15° NNW
CZ-4 R/B 4.5 13:09:21 10° NNE 13:14:15 62° ESE 13:19:17 10° S
Meteor 2-6 Rocket 4.4 13:10:34 21° NNW 13:14:17 60° WSW 13:19:58 10° S
Cosmos 1346 Rocket 3.6 13:12:04 10° S 13:15:47 49° ESE 13:19:27 10° NNE
USA 184 4.2 12:59:22 17° NW 13:17:52 81° SW 13:24:50 10° SE
Cosmos 2263 Rocket 2.2 13:12:37 10° SSW 13:18:23 77° WNW 13:24:05 10° NNE
OAO 3 Rocket 4.5 13:17:57 20° NNW 13:19:02 22° N 13:22:45 10° NE
Cosmos 1733 3.7 13:16:49 10° SSW 13:19:52 32° W 13:21:03 24° NW
Meteor 2-10 4.1 13:19:00 10° SSW 13:24:03 56° W 13:28:44 12° N
CZ-2D R/B 4.0 13:22:55 12° WNW 13:24:28 13° W 13:27:00 10° WSW
USA 215 3.5 13:21:09 10° ESE 13:27:42 61° NE 13:33:15 15° NW
USA 276 1.9 13:25:46 10° WSW 13:28:44 55° NNW 13:31:31 10° NE
CZ-2C R/B 2.3 13:28:07 10° N 13:32:42 68° WNW 13:37:27 10° SSW
Cosmos 1725 Rocket 4.4 13:27:10 10° S 13:33:33 67° E 13:39:47 10° NNE
Cosmos 2123 Rocket 4.2 13:29:18 10° N 13:35:28 74° E 13:41:44 10° SSE
Cosmos 1766 Rocket 4.1 13:31:56 10° SSW 13:36:03 40° W 13:39:25 14° NNW
Cosmos 1356 Rocket 4.0 13:32:27 10° N 13:36:17 51° E 13:40:09 10° SSE
Cosmos 2297 Rocket 4.0 13:34:10 10° WSW 13:36:21 12° W 13:37:44 11° WNW
YAOGAN 6 2.0 13:35:20 10° NNE 13:38:17 87° E 13:41:20 10° SSW
SL-12 R/B(2) 4.1 13:32:06 10° SW 13:40:29 64° WNW 13:47:47 10° NNE
Cosmos 1697 Rocket 4.0 13:36:22 11° WNW 13:41:01 29° SW 13:45:57 10° S
Cosmos 1400 Rocket 3.3 13:38:28 17° NW 13:41:05 41° WSW 13:44:49 10° S
Cosmos 1110 Rocket 4.1 13:36:31 13° NNW 13:41:14 85° ENE 13:46:33 10° SSE
USA 306 2.2 13:40:54 21° N 13:41:32 25° NE 13:42:59 10° E
Cosmos 2100 Rocket 4.1 13:36:20 10° SSW 13:42:35 67° W 13:48:50 10° N
Cosmos 2227 Rocket 3.4 13:41:23 10° SW 13:45:40 22° W 13:49:19 12° NW
SL-4 R/B 2.4 13:42:42 10° WSW 13:46:14 33° NW 13:49:35 10° NNE
SL-16 R/B 4.2 13:41:15 10° SE 13:46:44 31° E 13:52:09 10° NNE
Lacrosse 5 rocket 3.4 13:45:48 10° SW 13:48:47 25° SSE 13:51:45 10° E
USA 307 3.5 13:47:23 13° N 13:49:12 24° NE 13:51:51 10° ESE
Cosmos 1844 Rocket 4.1 13:43:44 10° SSW 13:49:13 44° SE 13:54:40 10° NE
Cosmos 1461 4.0 13:48:21 11° WNW 13:51:54 33° SW 13:55:38 10° SSE
Cosmos 1536 3.8 13:48:58 10° SSW 13:52:17 28° W 13:55:11 12° NNW
CZ-2C R/B 3.5 13:47:11 10° S 13:52:23 39° WSW 13:57:12 11° NW
Cosmos 1980 Rocket 2.9 13:49:24 12° NW 13:54:17 44° SW 13:59:43 10° SSE
Cosmos 1607 4.3 13:49:12 10° NNW 13:55:14 61° ENE 14:01:23 10° SE
Blok-2BL 4.4 13:58:26 10° WSW 13:59:35 15° WNW 13:59:35 15° WNW
Cosmos 1674 2.3 13:57:06 10° N 14:00:12 76° E 14:03:22 10° SSE
Cosmos 1766 3.8 13:57:23 10° S 14:00:58 55° ESE 14:04:30 10° NNE
USA 267 3.7 13:55:04 10° ENE 14:01:37 71° SSE 14:08:13 10° SW
Cosmos 1500 Rocket 3.6 13:58:11 10° S 14:02:44 89° ESE 14:07:11 10° N
Cosmos 2278 4.1 13:57:25 10° NNW 14:03:02 65° ENE 14:08:43 10° SSE
Cosmos 2219 3.9 13:58:22 10° SW 14:03:31 33° WNW 14:08:36 10° NNW
Cosmos 1315 Rocket 3.4 14:00:15 10° N 14:04:01 56° E 14:07:50 10° SSE
Meteor 1-28 Rocket 4.5 14:01:37 10° SSE 14:04:55 36° E 14:08:09 10° NNE
Okean 3 Rocket 4.2 14:02:18 10° SSW 14:06:37 40° W 14:10:51 10° NNW
Cosmos 1842 Rocket 4.3 14:02:48 10° NW 14:06:54 37° WSW 14:11:08 10° S
Tiangong -0.8 14:05:45 10° WNW 14:08:27 24° NNW 14:11:08 10° NE
Cosmos 1741 Rocket 4.1 14:03:54 10° SSW 14:09:08 57° WNW 14:14:19 10° N
Cosmos 1484 Rocket 3.4 14:09:50 10° NNE 14:13:21 56° ESE 14:16:52 10° S
Cosmos 2333 Rocket 3.5 14:09:42 10° N 14:15:01 39° ENE 14:20:23 10° SE
Cosmos 1908 4.4 14:16:13 10° S 14:19:31 41° ESE 14:22:46 10° NNE
Thor Agena Rocket 3.6 14:16:47 10° NNE 14:22:06 81° WNW 14:27:29 10° SSW
Cosmos 1844 4.1 14:19:16 10° SSW 14:24:53 71° ESE 14:30:28 10° NE
Cosmos 371 Rocket 3.4 14:20:09 10° SSW 14:25:01 83° ESE 14:29:53 10° NNE
SJ 16-02 2.1 14:21:59 10° SW 14:25:56 33° WNW 14:29:50 10° NNW
Cosmos 1452 Rocket 4.1 14:21:55 10° NW 14:27:00 47° WSW 14:32:09 10° SSE
Cosmos 1802 Rocket 4.4 14:22:33 10° SSW 14:28:25 43° W 14:34:11 10° NNW
